Find Starlink 30862

NORAD ID: 59032 Int'l Des: 2024-038 Owner: SPXS Country: US Constellation: starlink operational
LEOCIRCULAR

現在のビュー

3D地球を読み込み中...

About Starlink 30862

Starlink 30862 (NORAD 59032) is a starlink constellation satellite (v2 mini) launched Feb 25, 2024 by SPXS of US. It operates in LEO, CIRCULAR orbit with a mass of 730.00 kg.

次回通過

Passes for default location (London). Set your location on the main map for personalized predictions.

高度履歴

Loading altitude history...

軌道要素

1 59032U 24038K 26265.23871159 -.00000237 00000-0 90635-6 0 9995
2 59032 43.0034 346.1735 0001541 268.0181 92.0494 15.27574107144838
Epoch: Sep 22, 2026 • Age: 10 hours

現在のステータス

高度 483.2 km
遠地点 / 近地点 N/A
速度 7.63 km/s
衛星直下点 22.51°N, 139.25°E
打ち上げ日 Feb 25, 2024
運用期間 2.5 years
タイプ internet

技術仕様

分類 Payload
質量 730.00 kg
乾燥質量 700.00 kg
長さ 0.30 m
スパン 29.00 m
形状 ? Box + pan
製造者 SPXS
バスタイプ Starlink V2M
フェーズステータス In Orbit
所有者/国 SPXS/US

Most Searched